Location: Starlight Observatory
(38.4029°N, 85.8936°W)
Time: 02:12:27
(UTC-04:00)

Iridium 62 - Visible Passes

Search period start: 31 August 2016 00:00
Search period end: 10 September 2016 00:00
Orbit: 776 x 779 km, 86.4° (Epoch: 30 August)

Date Brightness Start Highest point End Pass type
(mag) Time Alt. Az. Time Alt. Az. Time Alt. Az.
31 Aug 8.5 02:23:37 15° N 02:23:37 15° N 02:24:26 10° N visible
01 Sep 8.7 01:50:17 13° NNE 01:50:17 13° NNE 01:50:47 10° NNE visible
02 Sep 8.6 02:57:26 11° NNW 02:57:26 11° NNW 02:57:33 10° NNW visible
03 Sep 8.7 02:24:05 12° N 02:24:05 12° N 02:24:28 10° N visible
04 Sep 8.8 01:50:45 11° N 01:50:45 11° N 01:51:00 10° N visible
